DW4915 Mazarete ES current weather conditions

sailwx.info

Wind from 075

Air temperature 11.7° C
Dewpoint 8.7° C

Last reported at 2015-Sep-04 06:46 UTC.
Time now 2015-Sep-04 07:56 UTC

Location: N 40°58' W 002°11'.
View on Google Maps.

See reports from other nearby stations

  
Tides and Currents Weather Stations Pressure Air Temp Water Temp Dewpoint Dewpoint Depression Visibility Wind Speed Wind Dir Waves Ship Positions
date/time (UTC)wind fromknots sea level pressurealtimeterstation pressurevisibilityair tempwater tempwave heightnotes
2015-Sep-04 06:46 075 11.7
2015-Sep-04 06:36 062 11.1
2015-Sep-04 06:26 066 11.1
2015-Sep-04 06:21 067 10.6
2015-Sep-04 06:16 079 10.6
2015-Sep-04 06:11 082 10.6
2015-Sep-04 06:01 081 10.6
2015-Sep-04 05:56 073 10.6
2015-Sep-04 05:51 065 10.6
2015-Sep-04 05:41 063 10.6
2015-Sep-04 05:36 056 10.6
2015-Sep-04 05:31 065 10.6
2015-Sep-04 05:21 055 10.6
2015-Sep-04 05:11 056 10.6
2015-Sep-04 05:06 052 10.6
2015-Sep-04 05:01 057 10.0
2015-Sep-04 04:56 071 10.6
2015-Sep-04 04:51 059 10.6
2015-Sep-04 04:41 075 10.0
2015-Sep-04 04:31 065 10.0
2015-Sep-04 04:26 071 10.0
2015-Sep-04 04:21 071 10.0
2015-Sep-04 04:16 076 10.0
2015-Sep-04 04:06 065 10.0
2015-Sep-04 04:01 061 10.0
2015-Sep-04 03:46 058 10.0
2015-Sep-04 03:41 063 10.6
2015-Sep-04 03:31 063 10.6
2015-Sep-04 03:26 067 10.6
2015-Sep-04 03:21 071 10.6
2015-Sep-04 03:06 076 10.6
2015-Sep-04 02:51 064 10.6
2015-Sep-04 02:41 079 11.1
2015-Sep-04 02:36 084 11.1
2015-Sep-04 02:26 076 11.1
2015-Sep-04 02:21 078 11.1
2015-Sep-04 02:11 077 11.1
2015-Sep-04 02:06 077 11.1
2015-Sep-04 02:01 097 11.1
2015-Sep-04 01:51 072 10.6
2015-Sep-04 01:46 069 11.1
2015-Sep-04 01:41 077 11.1
2015-Sep-04 01:31 073 11.1
2015-Sep-04 01:21 073 11.1
2015-Sep-04 01:16 079 11.1
2015-Sep-04 01:11 076 11.1
2015-Sep-04 01:06 075 11.1
2015-Sep-04 00:56 084 11.1
2015-Sep-04 00:46 077 11.1
2015-Sep-04 00:41 070 11.1
2015-Sep-04 00:21 073 11.1
2015-Sep-04 00:11 074 11.7
2015-Sep-04 00:01 075 11.7
2015-Sep-03 23:56 077 11.7
2015-Sep-03 23:51 058 11.7
2015-Sep-03 23:46 075 11.7
2015-Sep-03 23:36 065 11.7
2015-Sep-03 23:26 071 11.7
2015-Sep-03 23:16 068 11.7
2015-Sep-03 23:11 071 11.7
2015-Sep-03 23:06 063 11.7
2015-Sep-03 22:56 052 12.2
2015-Sep-03 22:51 072 12.2
2015-Sep-03 22:46 072 12.2
2015-Sep-03 22:36 063 12.2
2015-Sep-03 22:31 071 12.2
2015-Sep-03 22:26 080 12.8
2015-Sep-03 22:16 090 12.8
2015-Sep-03 22:11 083 12.8
2015-Sep-03 21:56 071 12.8
2015-Sep-03 21:51 079 12.8
2015-Sep-03 21:41 079 12.8
2015-Sep-03 21:26 072 12.8
2015-Sep-03 21:21 067 12.8
2015-Sep-03 21:11 069 12.8
2015-Sep-03 21:01 072 13.3
2015-Sep-03 20:56 075 13.3
2015-Sep-03 20:51 083 13.3
2015-Sep-03 20:41 076 13.3
2015-Sep-03 20:36 072 13.3
2015-Sep-03 20:31 091 13.9
2015-Sep-03 20:21 082 13.9
2015-Sep-03 20:16 072 13.9
2015-Sep-03 20:11 071 13.9
2015-Sep-03 20:01 079 13.9
2015-Sep-03 19:56 083 13.9
2015-Sep-03 19:51 059 14.4
2015-Sep-03 19:41 084 14.4
2015-Sep-03 19:36 069 14.4
2015-Sep-03 19:31 077 14.4
2015-Sep-03 19:21 075 14.4
2015-Sep-03 19:16 064 15.0
2015-Sep-03 19:11 044 15.0
2015-Sep-03 19:01 069 15.0
2015-Sep-03 18:56 068 15.0
2015-Sep-03 18:51 075 15.0
2015-Sep-03 18:46 066 15.6
2015-Sep-03 18:36 075 15.6
2015-Sep-03 18:31 069 15.6
2015-Sep-03 18:26 089 16.1
2015-Sep-03 18:16 069 16.1
2015-Sep-03 18:11 085 16.1
2015-Sep-03 18:06 053 16.7
2015-Sep-03 17:56 054 16.7
2015-Sep-03 17:51 046 16.7
2015-Sep-03 17:46 038 17.2
2015-Sep-03 17:31 049 17.2
2015-Sep-03 17:26 062 17.2
2015-Sep-03 17:16 093 17.8
2015-Sep-03 17:11 077 17.8
2015-Sep-03 17:01 088 17.8
2015-Sep-03 16:56 073 18.3
2015-Sep-03 16:41 068 17.8
2015-Sep-03 16:31 081 18.3
2015-Sep-03 16:11 088 18.3
2015-Sep-03 16:06 065 18.3
2015-Sep-03 16:01 083 18.3
2015-Sep-03 15:56 079 18.3
2015-Sep-03 15:36 085 19.4
2015-Sep-03 15:11 032 19.4
2015-Sep-03 15:06 052 19.4
2015-Sep-03 14:51 083 20.0
2015-Sep-03 14:46 047 20.0
2015-Sep-03 14:36 061 20.0
2015-Sep-03 14:26 048 20.0
2015-Sep-03 14:21 066 20.0
2015-Sep-03 14:11 086 20.6
2015-Sep-03 14:06 007 20.0
2015-Sep-03 13:56 036 19.4
2015-Sep-03 13:51 042 18.9
2015-Sep-03 13:46 021 18.9
2015-Sep-03 13:41 055 18.3
2015-Sep-03 13:26 036 18.3
2015-Sep-03 13:21 065 18.3
2015-Sep-03 13:06 014 18.9
2015-Sep-03 12:51 066 18.9
2015-Sep-03 12:46 083 18.9
2015-Sep-03 12:36 081 18.9
2015-Sep-03 12:16 058 18.9
2015-Sep-03 12:06 057 19.4
2015-Sep-03 12:01 057 19.4
2015-Sep-03 11:56 023 20.0
2015-Sep-03 11:41 003 18.9
2015-Sep-03 11:36 360 18.3
2015-Sep-03 11:26 354 18.3
2015-Sep-03 11:16 335 19.4
2015-Sep-03 11:06 312 18.9
2015-Sep-03 11:01 312 18.3
2015-Sep-03 10:46 086 18.3
2015-Sep-03 10:41 085 17.8
2015-Sep-03 10:31 085 17.2
2015-Sep-03 10:16 087 17.8
2015-Sep-03 10:11 106 18.3
2015-Sep-03 09:56 151 17.8
2015-Sep-03 09:26 102 17.8
2015-Sep-03 09:21 102 17.8
2015-Sep-03 09:11 103 17.2
2015-Sep-03 09:01 101 16.7
2015-Sep-03 08:56 102 16.7
2015-Sep-03 08:36 102 16.7
2015-Sep-03 08:31 102 16.7
2015-Sep-03 08:21 102 16.1
2015-Sep-03 08:11 102 15.6
2015-Sep-03 07:56 102 15.0
2015-Sep-03 07:46 065 15.0
2015-Sep-03 07:41 065 14.4
2015-Sep-03 07:31 063 14.4
2015-Sep-03 07:16 064 14.4
2015-Sep-03 07:06 065 14.4
2015-Sep-03 06:56 065 14.4
2015-Sep-03 06:36 065 13.9
2015-Sep-03 06:31 065 13.9
2015-Sep-03 06:26 065 13.9
2015-Sep-03 06:11 065 13.3
2015-Sep-03 05:46 064 13.9
2015-Sep-03 05:36 065 13.9
2015-Sep-03 05:26 063 13.9
2015-Sep-03 05:11 064 13.9
2015-Sep-03 05:01 065 13.3
2015-Sep-03 04:56 065 13.3
2015-Sep-03 04:46 065 13.9
2015-Sep-03 04:36 064 13.9
2015-Sep-03 04:26 065 13.9
2015-Sep-03 04:21 065 13.9
2015-Sep-03 04:16 064 13.3
2015-Sep-03 04:06 065 13.3
2015-Sep-03 04:01 065 13.3
2015-Sep-03 03:46 065 13.3
2015-Sep-03 03:26 064 13.3
2015-Sep-03 03:16 064 13.3
2015-Sep-03 03:11 065 13.3
2015-Sep-03 03:01 065 13.3
2015-Sep-03 02:56 064 13.3
2015-Sep-03 02:51 065 13.3
2015-Sep-03 02:41 074 13.3
2015-Sep-03 02:36 075 13.3
2015-Sep-03 02:31 074 13.9
2015-Sep-03 02:21 080 13.9
2015-Sep-03 02:06 083 13.3
2015-Sep-03 01:56 085 13.3
2015-Sep-03 01:51 085 13.3
2015-Sep-03 01:41 086 13.3
2015-Sep-03 01:26 088 13.3
2015-Sep-03 01:21 087 13.3
2015-Sep-03 01:11 086 13.3
2015-Sep-03 01:06 087 13.3
2015-Sep-03 01:01 086 13.9
2015-Sep-03 00:56 088 13.9
2015-Sep-03 00:41 087 13.9
2015-Sep-03 00:36 085 13.9
2015-Sep-03 00:26 079 13.9
2015-Sep-03 00:21 075 13.9
2015-Sep-03 00:16 079 13.9
2015-Sep-03 00:06 080 13.9
2015-Sep-03 00:01 081 13.9
2015-Sep-02 23:56 080 13.9
2015-Sep-02 23:46 065 13.9
2015-Sep-02 23:41 079 13.9
2015-Sep-02 23:36 078 13.9
2015-Sep-02 23:26 078 13.9
2015-Sep-02 22:56 052 14.4
2015-Sep-02 22:51 061 14.4
2015-Sep-02 22:41 075 14.4
2015-Sep-02 22:31 071 14.4
2015-Sep-02 22:21 069 15.0
2015-Sep-02 22:11 052 15.0
2015-Sep-02 22:01 054 15.0
2015-Sep-02 21:51 055 15.0
2015-Sep-02 21:41 056 15.6
2015-Sep-02 21:31 058 15.6
2015-Sep-02 21:26 065 15.6
2015-Sep-02 21:16 065 16.1
2015-Sep-02 21:11 066 16.1
2015-Sep-02 21:06 066 16.1
2015-Sep-02 20:36 077 16.7
2015-Sep-02 20:26 071 16.7
2015-Sep-02 20:21 069 17.2
2015-Sep-02 20:11 079 17.2
2015-Sep-02 19:56 077 17.2
2015-Sep-02 19:46 079 17.2
2015-Sep-02 19:41 092 17.8
2015-Sep-02 19:31 061 17.8
2015-Sep-02 19:16 074 17.8
2015-Sep-02 19:11 065 17.8
2015-Sep-02 19:06 069 17.8
2015-Sep-02 18:56 078 18.3
2015-Sep-02 18:51 092 18.3
2015-Sep-02 18:41 084 18.3
2015-Sep-02 18:31 081 18.3
2015-Sep-02 18:26 094 18.3
2015-Sep-02 18:21 081 18.9
2015-Sep-02 18:11 081 18.9
2015-Sep-02 17:56 069 18.9
2015-Sep-02 17:51 069 18.9
2015-Sep-02 17:46 075 19.4
2015-Sep-02 17:36 079 19.4
2015-Sep-02 17:26 089 19.4
2015-Sep-02 17:16 092 20.0
2015-Sep-02 17:11 077 20.0
2015-Sep-02 16:56 065 20.0
2015-Sep-02 16:46 071 20.0
2015-Sep-02 16:36 079 20.0
2015-Sep-02 16:31 070 20.0
2015-Sep-02 16:26 085 20.0
2015-Sep-02 16:16 076 20.0
2015-Sep-02 16:11 077 20.0
2015-Sep-02 16:06 064 20.0
2015-Sep-02 15:56 066 20.6
2015-Sep-02 15:41 061 21.7
2015-Sep-02 15:26 031 22.8
2015-Sep-02 15:16 271 24.4
2015-Sep-02 15:06 271 24.4
2015-Sep-02 14:56 261 25.0
2015-Sep-02 14:51 226 24.4
2015-Sep-02 14:46 248 23.9
2015-Sep-02 14:21 237 24.4
2015-Sep-02 14:16 267 24.4
2015-Sep-02 14:11 274 24.4
2015-Sep-02 14:01 268 24.4
2015-Sep-02 13:56 255 24.4
2015-Sep-02 13:46 262 23.9
2015-Sep-02 13:26 253 23.3
2015-Sep-02 13:21 253 23.3
2015-Sep-02 13:16 253 23.9
2015-Sep-02 13:01 260 23.3
2015-Sep-02 12:56 268 23.3
2015-Sep-02 12:46 235 23.9
2015-Sep-02 12:36 262 23.9
2015-Sep-02 12:21 247 22.8
2015-Sep-02 12:11 258 22.2
2015-Sep-02 12:01 268 22.2
2015-Sep-02 11:51 255 22.2
2015-Sep-02 11:41 240 22.8
2015-Sep-02 11:36 240 22.8
2015-Sep-02 11:31 240 22.8
2015-Sep-02 11:21 227 22.2
2015-Sep-02 11:16 229 21.7
2015-Sep-02 11:11 221 22.2
2015-Sep-02 10:56 221 21.7
2015-Sep-02 10:51 221 21.7
2015-Sep-02 10:46 225 21.7
2015-Sep-02 10:21 204 20.6
2015-Sep-02 10:11 206 20.6
2015-Sep-02 10:06 244 20.6
2015-Sep-02 10:01 246 20.6
2015-Sep-02 09:51 244 19.4
2015-Sep-02 09:46 245 19.4
2015-Sep-02 09:41 244 18.9
2015-Sep-02 09:31 242 19.4
2015-Sep-02 09:26 238 20.0
2015-Sep-02 08:56 150 18.9
2015-Sep-02 08:51 116 18.3
2015-Sep-02 08:36 086 18.3
2015-Sep-02 08:26 085 17.8
2015-Sep-02 08:11 083 17.8
2015-Sep-02 08:01 067 17.2